Wind_Speed
21 22 22 22 23 23 23 23 22 18 16 16 17 18 20 22 21 11 5 4 3 10 10 10 4 11 2 3 3 3 4 1 3 5 4 4 4 2 1 5 3 5 3 2 17
22 23 24 23 24 24 24 25 25 20 17 16 16 17 19 21 18 7 3 4 5 6 6 8 6 8 3 2 2 4 3 6 5 3 4 5 3 7 4 3 4 3 1 7 25
21 23 25 24 24 26 27 27 26 22 18 16 16 16 18 14 5 4 1 2 4 4 5 5 4 1 3 1 0 3 4 4 3 3 3 5 2 7 7 4 8 9 7 12 16
19 23 25 25 26 28 29 29 26 21 18 16 15 15 14 4 1 1 2 3 3 4 4 5 4 4 3 3 2 1 4 3 2 2 2 3 5 4 8 9 3 9 8 14 11
19 22 25 26 27 29 31 30 26 22 19 16 13 13 5 3 7 2 2 3 3 4 3 2 2 1 1 2 4 2 2 2 2 3 3 0 6 7 8 10 3 7 10 14 15
19 22 24 27 29 31 34 31 27 25 21 14 10 8 2 3 2 2 1 3 3 4 3 3 1 2 1 2 1 2 3 5 4 3 3 4 4 2 5 4 7 9 11 11 16
20 23 25 28 30 32 35 32 31 24 16 10 6 3 0 11 3 3 2 1 3 2 2 2 1 2 1 4 4 2 4 6 4 2 5 4 8 10 7 4 8 10 10 9 14
21 23 25 28 31 33 34 33 27 15 4 4 2 1 6 3 7 7 5 2 3 2 2 2 2 2 1 2 6 3 4 4 3 3 1 3 11 10 3 7 11 11 9 10 11
20 22 25 28 31 32 32 33 10 6 3 2 2 2 8 7 4 4 6 3 2 1 2 1 3 3 5 3 4 5 2 2 8 5 1 4 9 5 2 7 9 9 10 10 10
21 23 25 27 29 27 30 18 6 3 3 2 1 3 4 3 3 2 1 3 1 2 5 6 5 3 4 4 3 2 3 3 5 3 3 5 16 16 9 7 9 9 10 9 11
22 23 25 25 26 21 28 6 9 5 7 3 4 4 4 11 3 1 2 3 3 7 1 3 4 4 6 5 2 2 2 4 5 4 3 8 11 19 16 7 11 11 10 12 15
22 23 24 24 22 13 21 7 3 6 8 4 7 7 14 5 4 3 3 3 2 2 1 5 4 4 3 2 2 3 3 6 6 3 3 8 20 20 18 9 11 15 13 15 7
22 22 23 22 13 8 9 11 18 1 3 7 5 4 4 9 4 4 5 3 2 1 3 5 3 2 3 1 1 2 4 4 5 6 3 8 10 6 4 3 6 10 12 10 16
22 22 21 21 2 12 1 18 18 6 4 5 2 3 3 4 2 3 4 3 1 2 4 4 4 3 2 3 5 3 3 3 5 5 3 5 6 8 6 9 7 9 9 13 11
23 22 20 13 10 7 9 20 7 3 4 1 1 1 2 4 1 2 0 2 3 2 4 6 2 1 1 4 5 7 1 1 1 1 4 4 2 9 5 7 8 9 10 11 11
24 23 21 10 9 5 17 17 2 4 5 1 1 1 3 2 2 3 2 3 1 2 2 7 2 3 5 1 1 2 0 5 4 2 2 3 3 7 3 3 9 6 6 9 10
26 25 17 9 4 13 14 3 4 3 4 2 2 1 1 2 2 1 1 2 3 2 3 5 3 3 2 2 2 5 6 4 4 3 5 1 0 11 9 10 7 12 12 8 8
28 25 12 7 9 8 4 4 1 2 3 5 1 2 3 4 2 0 2 2 3 4 1 1 6 3 1 3 5 1 5 5 4 2 5 2 6 6 5 7 9 10 10 9 7
29 19 5 6 8 5 4 2 5 2 3 7 5 1 2 1 1 1 4 4 6 8 7 4 5 1 0 1 1 2 3 3 4 2 2 4 8 10 3 6 11 12 10 10 8
24 12 5 16 3 2 4 4 2 2 4 3 2 1 2 2 1 1 3 3 3 9 2 2 3 1 2 2 2 3 4 3 3 2 5 5 6 6 7 9 11 19 15 12 9
10 4 8 12 1 4 3 5 3 3 6 3 2 3 2 3 2 3 4 2 2 2 0 5 3 3 1 5 8 1 1 4 3 4 4 3 6 6 3 3 5 8 9 9 9
5 3 14 8 3 1 1 3 3 3 4 4 3 3 3 4 3 2 3 3 6 4 5 3 4 4 10 1 2 3 7 6 4 4 2 2 7 3 7 5 5 8 7 6 5
2 2 7 7 1 2 3 5 4 4 4 5 4 4 3 3 4 2 3 3 12 6 2 1 2 2 8 4 2 4 5 4 4 3 7 4 6 2 4 9 7 8 9 8 8
3 4 4 4 2 1 6 4 5 7 1 3 4 6 5 3 2 4 7 4 10 8 9 1 4 6 6 3 3 4 5 6 6 3 7 13 24 19 22 23 27 22 12 18 12
3 1 0 3 3 4 5 4 6 6 5 7 4 9 7 4 6 4 8 8 7 12 9 5 4 3 5 7 4 5 7 6 9 10 11 7 18 8 9 9 11 15 20 18 18
1 1 2 1 2 2 3 1 2 3 4 4 4 9 6 5 4 5 11 4 4 6 6 7 5 6 4 7 9 13 11 11 10 10 13 13 29 17 18 17 17 14 12 15 17
1 1 2 2 1 1 2 2 2 4 2 1 5 7 10 5 5 10 11 12 13 10 5 3 3 6 5 5 12 18 9 17 14 10 10 17 22 18 14 14 12 11 9 12 18
Wind_Direction
10 6 2 359 357 355 352 349 344 332 329 327 329 332 332 328 324 315 262 256 301 315 329 332 345 357 63 74 79 121 65 187 239 161 245 147 167 150 93 124 232 197 165 309 160
2 357 355 353 351 350 348 345 341 331 324 323 325 329 332 329 324 287 268 273 312 325 345 359 343 354 35 43 37 87 120 221 204 211 221 191 176 177 154 154 243 262 157 142 160
354 346 348 351 351 349 347 343 339 331 323 321 322 327 330 330 340 260 349 322 317 333 336 327 320 31 44 357 28 159 179 226 257 220 214 184 217 175 150 223 212 207 179 157 163
347 340 349 350 350 348 346 342 338 330 323 318 319 325 329 336 266 338 314 318 324 340 344 336 10 34 41 354 347 301 239 221 266 240 171 197 128 209 191 223 183 216 157 163 170
336 340 346 348 346 345 344 340 337 330 323 314 315 326 338 9 251 322 305 313 330 356 7 18 53 110 2 320 334 202 280 253 299 260 256 31 240 231 233 241 92 127 151 177 186
341 341 342 343 342 341 341 338 333 323 312 304 305 321 341 279 259 285 244 322 346 3 3 34 114 208 244 257 171 288 282 290 286 248 250 217 256 176 251 226 166 160 192 189 190
336 340 341 341 340 339 338 336 329 317 303 286 287 300 315 239 261 283 225 344 353 9 29 338 6 83 100 326 332 326 322 321 240 237 237 172 293 237 222 154 189 203 205 205 212
337 341 343 343 341 339 336 334 329 328 294 249 242 173 246 269 294 255 223 278 286 320 10 15 9 89 33 309 11 36 43 350 288 144 297 121 274 267 231 171 218 216 214 213 216
340 341 341 341 342 341 338 334 339 360 55 145 148 160 271 308 281 252 232 217 319 159 34 110 66 70 16 62 2 9 263 258 314 204 127 180 273 270 112 184 243 235 229 220 228
337 334 334 337 341 345 342 334 353 18 37 98 86 17 295 329 331 343 222 197 109 63 26 41 48 56 34 69 244 278 326 276 252 282 203 262 263 269 254 211 241 235 230 229 229
338 338 337 334 339 348 353 357 14 353 22 298 300 274 307 329 297 84 103 112 44 52 131 15 55 231 227 203 241 291 248 272 258 282 262 245 266 272 267 219 242 234 228 227 228
335 334 335 334 336 352 35 69 43 271 310 273 253 262 270 283 328 312 154 117 80 217 33 19 230 224 215 190 181 224 304 291 287 281 193 300 281 264 258 235 216 225 224 225 211
346 337 334 334 336 7 56 39 352 237 257 296 227 233 234 159 236 265 137 130 141 183 197 174 241 143 152 213 234 278 231 261 255 317 274 310 293 315 297 250 238 231 227 219 212
352 348 341 340 30 346 56 346 345 168 26 280 296 278 163 158 253 253 187 132 72 235 177 238 285 285 195 226 140 303 208 257 306 23 295 26 288 296 317 301 259 256 227 229 214
350 348 344 350 324 331 326 334 348 153 348 148 198 182 118 146 323 8 29 73 201 193 103 257 297 296 237 225 168 221 64 354 351 56 350 331 62 270 348 323 313 284 248 246 230
346 343 338 331 309 299 324 333 113 37 261 328 13 72 104 24 352 322 73 67 136 183 329 237 283 218 216 79 258 93 128 48 55 83 356 262 145 285 286 242 305 303 300 247 229
340 337 329 315 298 312 325 24 35 162 334 336 293 108 120 259 298 152 130 178 175 85 336 320 243 287 143 129 25 67 52 328 343 7 225 138 283 250 280 283 244 279 287 291 247
337 335 319 314 316 324 332 59 185 290 286 326 27 56 197 158 249 191 86 255 202 98 58 238 326 186 325 195 184 146 159 158 252 275 285 97 238 249 213 298 293 282 276 281 277
336 345 5 353 328 331 75 98 214 215 299 339 314 206 291 314 222 140 217 212 223 172 178 167 275 288 203 71 99 161 190 197 117 28 30 257 291 299 324 343 341 351 356 350 339
336 335 335 349 318 351 78 234 236 278 321 15 294 198 275 315 150 170 208 214 258 194 153 198 296 8 347 114 61 180 160 68 1 236 270 287 278 240 337 349 351 22 11 357 346
339 13 352 353 73 42 161 238 290 273 31 359 324 309 353 2 254 220 233 295 325 25 341 147 142 291 45 201 185 113 250 64 132 153 197 289 269 216 225 271 360 355 11 5 355
8 8 348 359 45 52 171 228 332 333 347 340 4 350 25 7 317 247 258 251 344 148 160 246 159 234 223 122 183 181 206 155 137 240 244 174 271 258 243 281 333 324 333 334 335
29 276 345 7 27 313 312 319 338 330 0 360 327 38 38 344 342 299 314 30 20 10 0 202 259 334 330 17 13 222 199 161 116 100 200 168 262 245 298 288 270 309 327 324 316
33 0 329 41 60 331 9 335 315 342 92 320 284 20 2 336 260 298 349 358 336 353 344 177 188 192 203 225 127 221 210 206 161 156 238 232 270 271 294 308 308 320 311 314 311
35 312 354 336 34 20 28 347 324 340 10 6 95 46 19 314 337 44 6 332 344 8 8 40 282 221 258 266 245 243 242 200 200 226 222 265 247 272 261 279 285 291 299 307 305
77 41 5 308 317 11 352 299 353 349 323 1 21 1 10 3 30 351 354 351 301 342 18 358 299 348 282 286 275 269 250 236 223 243 261 266 268 268 286 277 280 288 287 290 292
197 134 97 315 25 48 236 237 57 27 258 330 29 337 326 331 342 303 273 251 249 272 309 295 323 352 266 334 328 287 227 220 230 215 229 251 271 282 280 266 277 279 276 280 286
Height
855 853 850 847 844 841 837 833 830 827 824 822 820 818 815 811 807 805 803 802 800 799 798 796 795 794 793 795 797 801 828 835 821 823 813 807 808 806 805 812 811 811 811 812 812
856 853 850 847 843 840 836 833 829 826 823 821 819 816 814 810 806 803 801 800 800 799 798 797 796 795 799 799 802 812 830 820 808 806 809 806 805 807 809 812 812 811 810 812 814
857 853 850 846 842 839 835 831 827 824 821 819 817 815 812 809 807 801 800 800 799 799 799 798 797 797 801 800 803 811 821 807 801 800 800 804 804 805 809 814 806 807 807 812 814
856 852 849 846 842 838 834 830 825 822 820 818 816 813 811 810 820 800 800 800 799 799 799 798 798 803 807 810 804 811 804 801 798 796 799 802 803 805 806 797 792 795 799 807 811
855 852 848 845 841 836 832 828 824 820 818 816 815 813 811 812 806 800 800 800 799 799 799 799 801 805 810 809 807 808 802 799 797 798 798 798 801 802 800 791 793 796 799 803 806
855 851 847 843 839 835 830 825 821 817 815 814 813 812 812 817 799 799 799 800 799 799 799 799 801 801 805 806 809 804 803 803 800 799 799 801 801 799 790 787 793 796 798 799 800
854 850 846 842 837 832 827 822 817 812 811 811 811 811 812 806 798 798 798 799 799 799 799 799 799 802 803 807 804 803 809 807 802 800 801 800 806 801 787 788 792 795 796 798 796
854 850 846 841 836 830 824 818 812 808 807 809 810 811 810 797 797 797 797 798 798 799 799 799 799 801 804 803 810 812 818 824 801 802 799 801 812 787 784 790 790 792 794 795 794
853 849 845 841 835 829 822 816 811 809 808 808 810 811 808 797 796 796 797 797 797 798 799 799 800 809 809 819 828 827 829 824 816 804 802 806 805 783 784 789 789 791 792 791 791
852 848 844 840 835 828 821 814 811 810 810 809 811 815 800 799 796 796 796 797 798 798 801 804 813 821 828 832 839 826 826 821 825 806 806 809 803 784 783 785 782 784 786 787 786
851 847 844 840 835 830 821 813 817 815 812 814 814 810 803 799 797 796 797 798 799 805 815 813 824 829 821 821 818 818 821 824 818 805 807 809 803 783 771 780 779 777 779 779 777
850 846 843 839 835 832 828 829 839 839 831 811 809 809 804 804 804 797 797 803 806 817 815 824 827 813 813 814 817 819 821 826 816 806 809 806 791 770 762 765 762 761 764 765 768
849 845 841 838 834 833 833 836 836 835 837 814 806 805 801 802 804 801 798 802 809 816 818 826 812 808 808 811 815 818 820 821 821 813 808 813 792 770 755 755 754 753 748 752 754
850 845 841 837 837 835 835 835 833 832 842 816 805 800 799 799 804 797 797 802 808 815 820 822 811 809 810 812 815 822 813 813 816 824 831 812 826 783 764 762 752 751 752 746 748
850 846 842 839 839 837 837 833 831 833 846 808 803 797 797 804 803 800 798 799 810 812 817 820 810 811 813 811 809 818 809 814 815 825 827 823 834 787 768 753 748 743 746 744 741
849 846 842 839 838 837 835 832 833 844 840 810 803 804 805 803 804 801 800 800 803 809 814 816 807 807 807 807 807 809 811 825 833 837 843 824 828 793 767 751 753 739 735 738 738
849 844 840 839 837 835 833 832 848 848 813 814 811 807 810 811 808 806 809 812 821 826 827 820 812 804 801 809 810 816 829 845 838 841 838 820 827 790 761 752 750 742 734 730 731
847 842 839 838 836 834 833 839 846 826 825 814 811 813 815 812 812 812 815 822 815 821 833 831 827 809 805 807 815 819 827 847 830 844 839 824 821 773 751 746 746 742 735 730 727
846 841 839 838 836 835 837 851 840 833 829 828 816 817 817 812 813 815 820 824 816 815 828 834 824 807 807 807 809 822 831 823 835 844 851 826 799 763 746 747 745 740 736 733 730
847 843 840 838 836 836 843 842 836 831 829 826 825 819 822 818 820 822 820 812 809 810 805 816 826 812 808 807 812 812 819 832 843 833 833 827 817 792 759 757 751 740 743 739 735
849 849 842 838 838 842 848 849 839 830 830 830 828 827 823 827 823 824 819 810 807 811 808 816 820 819 811 816 819 823 823 832 836 843 836 839 807 771 757 751 751 751 748 743 738
853 857 843 840 850 851 851 842 835 832 830 829 829 828 828 830 825 824 822 816 810 811 815 812 826 828 818 809 809 811 816 821 837 828 847 844 815 759 757 754 751 750 747 742 736
861 859 846 842 851 856 844 843 839 836 834 833 834 831 829 831 835 825 818 813 818 812 812 812 826 833 819 814 812 811 813 814 824 832 836 839 801 754 753 754 751 746 741 740 736
862 867 857 851 856 856 852 846 845 840 838 837 834 834 836 833 832 829 833 822 826 821 810 811 824 824 827 807 812 813 811 814 813 832 807 797 774 762 754 752 740 737 739 733 734
866 869 868 871 859 859 858 858 852 850 843 840 841 846 847 841 840 843 844 839 828 828 826 829 826 820 817 814 809 806 803 810 816 800 802 777 776 767 764 762 755 745 738 736 729
869 871 870 872 869 864 862 860 859 857 855 850 850 854 850 848 849 851 854 846 842 837 838 839 833 831 819 808 806 804 800 802 803 795 791 790 762 758 753 750 747 745 743 736 728
866 867 869 870 872 871 869 860 858 861 857 855 858 859 853 851 851 851 849 848 846 844 840 839 839 838 826 819 810 790 779 781 776 780 778 779 757 750 750 748 744 740 736 732 721